星链-3293 (STARLINK-3293 )

导读 | 星芒AI

STARLINK-3293 是 SpaceX Starlink 项目中的一颗低轨通信卫星,属于第三代星链卫星群。该卫星于2023年发射,旨在为全球用户提供高速、低延迟的互联网服务。它运行在约550公里高的近地轨道,配备先进相控阵天线和激光通信系统,以提升网络效率和稳定性。作为星链星座的一部分,STARLINK-3293 有助于扩大卫星互联网覆盖范围,特别是在偏远和网络基础设施薄弱的地区。

基本信息
目录编号:
50176
目录名称:
STARLINK-3293
国际标识:
2021-125W
轨道中心:
EARTH
卫星名称:
星链-3293
卫星全名:
星链-3293 (STARLINK-3293 )
卫星状态:
在轨 (已飞行1463 天)
发射日期:
2021-12-18 UTC
国别 :
美国 (US)
星等 :
--
轨道信息
数据来源 国际轨道数据 AOE轨道数据
星历时间 2025-12-20T12:47:54+0800
7小时前
查看轨道信息
2025-12-20T14:00:00+0800
6小时前
查看轨道信息
半长轴 6917.905km 6917.853km
偏心率 0.0001523 0.0001296
轨道倾角 53.217° 53.217°
近地点辐角 73.805° 84.681°
升交点赤经 245.965° 245.740°
平近点角 286.311° 187.630°
近地点 538.714km 538.819km
远地点 540.822km 540.613km
周期 95.438分钟 95.437分钟
每日圈数 15.088321 15.088492
详细信息
固有亮度:
5
最大亮度:
2.5
卫星平台:
Starlink v1.5
覆盖范围:
全球
运营商:
太空探索技术公司
运营商所在国:
美国
制造商(研发单位):
太空探索技术公司
制造商所在国:
美国
使用方式:
暂无
卫星简介
星链(Starlink)计划是由太空探索技术公司(SpaceX)提出的一个巨型低轨卫星互联网星座项目,计划在2019年至2024年间在太空搭建由约1.2万颗卫星组成的“星链”网络,其中1584颗将部署在地球上空550千米处的近地轨道,并从2020年开始工作。该卫星仍在工作。
2D轨道图
3D轨道图
轨道高度分析图
轨道倾角分析图
轨道综合分析图
查看轨道综合分析图